• In Deutschland
  • Länderverzeichnis
  • Für 7 Tage
  • Wassertemperatur
  • Satellitenkarten
  • Wetterkarte
  • Widgets
  • user-avatar
    Anmelden

    Stündliche Wetter Rustawi

    Heute, 23 Mai, Mittwoch

    Zeit Temperatur Niederschläge Wind Luftdruck Luftfeuchtigkeit
    00:00 +18°C° 0 mm 2 m/S 729 mmHg 66%
    01:00 +17°C° 0 mm 2 m/S 729 mmHg 66%
    02:00 +17°C° 0 mm 2 m/S 729 mmHg 66%
    03:00 +17°C° 0 mm 2 m/S 729 mmHg 66%
    04:00 +17°C° 0 mm 2 m/S 729 mmHg 65%
    05:00 +18°C° 0 mm 2 m/S 729 mmHg 65%
    06:00 +18°C° 0 mm 2 m/S 729 mmHg 64%
    07:00 +20°C° 0 mm 2 m/S 729 mmHg 56%
    08:00 +23°C° 0 mm 2 m/S 730 mmHg 48%
    09:00 +25°C° 0 mm 3 m/S 730 mmHg 40%
    10:00 +26°C° 0 mm 3 m/S 730 mmHg 38%
    11:00 +27°C° 0 mm 3 m/S 729 mmHg 36%
    12:00 +28°C° 0 mm 4 m/S 729 mmHg 34%
    13:00 +29°C° 0 mm 4 m/S 729 mmHg 33%
    14:00 +29°C° 0 mm 4 m/S 729 mmHg 32%
    15:00 +29°C° 0 mm 4 m/S 728 mmHg 30%
    16:00 +28°C° 0 mm 4 m/S 728 mmHg 33%
    17:00 +28°C° 0 mm 3 m/S 728 mmHg 36%
    18:00 +27°C° 0 mm 2 m/S 728 mmHg 40%
    19:00 +24°C° 0 mm 2 m/S 728 mmHg 40%
    20:00 +21°C° 0 mm 3 m/S 728 mmHg 40%
    21:00 +19°C° 0 mm 3 m/S 729 mmHg 41%
    22:00 +18°C° 0 mm 3 m/S 728 mmHg 42%
    23:00 +18°C° 0 mm 2 m/S 728 mmHg 43%

    Morgen, 24 Mai, Donnerstag

    Zeit Temperatur Niederschläge Wind Luftdruck Luftfeuchtigkeit
    00:00 +17°C° 0 mm 2 m/S 728 mmHg 44%
    01:00 +16°C° 0 mm 2 m/S 728 mmHg 44%
    02:00 +16°C° 0 mm 2 m/S 728 mmHg 45%
    03:00 +16°C° 0 mm 2 m/S 728 mmHg 45%
    04:00 +16°C° 0 mm 2 m/S 728 mmHg 46%
    05:00 +17°C° 0 mm 2 m/S 728 mmHg 48%
    06:00 +17°C° 0 mm 2 m/S 728 mmHg 49%
    07:00 +20°C° 0 mm 2 m/S 728 mmHg 42%
    08:00 +23°C° 0 mm 2 m/S 728 mmHg 34%
    09:00 +25°C° 0 mm 1 m/S 727 mmHg 27%
    10:00 +26°C° 0 mm 2 m/S 727 mmHg 26%
    11:00 +28°C° 0 mm 2 m/S 727 mmHg 24%
    12:00 +29°C° 0 mm 3 m/S 726 mmHg 23%
    13:00 +29°C° 0 mm 3 m/S 726 mmHg 23%
    14:00 +29°C° 0 mm 3 m/S 725 mmHg 23%
    15:00 +30°C° 0 mm 3 m/S 725 mmHg 23%
    16:00 +29°C° 0 mm 3 m/S 724 mmHg 28%
    17:00 +28°C° 0 mm 2 m/S 724 mmHg 32%
    18:00 +27°C° 0 mm 2 m/S 724 mmHg 36%
    19:00 +25°C° 0 mm 2 m/S 724 mmHg 37%
    20:00 +21°C° 0 mm 2 m/S 724 mmHg 37%
    21:00 +19°C° 0 mm 3 m/S 724 mmHg 37%
    22:00 +18°C° 0 mm 2 m/S 724 mmHg 37%
    23:00 +18°C° 0 mm 2 m/S 724 mmHg 38%

    übermorgen, 25 Mai, Freitag

    Zeit Temperatur Niederschläge Wind Luftdruck Luftfeuchtigkeit
    00:00 +17°C° 0 mm 2 m/S 724 mmHg 38%
    01:00 +17°C° 0 mm 2 m/S 724 mmHg 39%
    02:00 +17°C° 0 mm 2 m/S 723 mmHg 40%
    03:00 +16°C° 0 mm 2 m/S 723 mmHg 41%
    04:00 +17°C° 0 mm 2 m/S 723 mmHg 43%
    05:00 +18°C° 0 mm 2 m/S 723 mmHg 46%
    06:00 +18°C° 0 mm 2 m/S 723 mmHg 49%
    07:00 +21°C° 0 mm 2 m/S 723 mmHg 43%
    08:00 +24°C° 0 mm 1 m/S 723 mmHg 37%
    09:00 +27°C° 0 mm 1 m/S 723 mmHg 31%
    10:00 +28°C° 0 mm 1 m/S 723 mmHg 30%
    11:00 +29°C° 0 mm 1 m/S 723 mmHg 29%
    12:00 +30°C° 0 mm 2 m/S 722 mmHg 28%
    13:00 +31°C° 0 mm 2 m/S 722 mmHg 28%
    14:00 +31°C° 0 mm 2 m/S 722 mmHg 28%
    15:00 +31°C° 0 mm 2 m/S 722 mmHg 28%
    16:00 +30°C° 0,1 mm 2 m/S 722 mmHg 33%
    17:00 +29°C° 0,1 mm 2 m/S 722 mmHg 37%
    18:00 +28°C° 0,1 mm 1 m/S 722 mmHg 42%
    19:00 +26°C° 0,1 mm 1 m/S 722 mmHg 45%
    20:00 +24°C° 0,1 mm 2 m/S 722 mmHg 47%
    21:00 +21°C° 0,1 mm 2 m/S 723 mmHg 50%
    22:00 +20°C° 0 mm 2 m/S 723 mmHg 53%
    23:00 +20°C° 0 mm 2 m/S 723 mmHg 55%

    26 Mai, Samstag

    Zeit Temperatur Niederschläge Wind Luftdruck Luftfeuchtigkeit
    00:00 +19°C° 0 mm 2 m/S 723 mmHg 58%
    01:00 +19°C° 0 mm 2 m/S 723 mmHg 59%
    02:00 +19°C° 0 mm 2 m/S 723 mmHg 60%
    03:00 +19°C° 0 mm 2 m/S 723 mmHg 62%
    04:00 +19°C° 0 mm 2 m/S 723 mmHg 62%
    05:00 +20°C° 0 mm 2 m/S 723 mmHg 62%
    06:00 +20°C° 0 mm 2 m/S 723 mmHg 62%
    07:00 +23°C° 0 mm 2 m/S 723 mmHg 57%
    08:00 +25°C° 0 mm 2 m/S 723 mmHg 52%
    09:00 +27°C° 0 mm 2 m/S 724 mmHg 47%
    10:00 +28°C° 0 mm 2 m/S 723 mmHg 44%
    11:00 +30°C° 0 mm 1 m/S 723 mmHg 41%
    12:00 +31°C° 0 mm 1 m/S 723 mmHg 38%
    13:00 +32°C° 0,1 mm 1 m/S 723 mmHg 37%
    14:00 +32°C° 0,1 mm 1 m/S 723 mmHg 37%
    15:00 +32°C° 0,1 mm 1 m/S 723 mmHg 36%
    16:00 +31°C° 0,2 mm 1 m/S 724 mmHg 41%
    17:00 +30°C° 0,2 mm 1 m/S 724 mmHg 46%
    18:00 +29°C° 0,2 mm 1 m/S 724 mmHg 50%
    19:00 +27°C° 0,4 mm 1 m/S 725 mmHg 55%
    20:00 +25°C° 0,4 mm 1 m/S 725 mmHg 59%
    21:00 +23°C° 0,4 mm 2 m/S 726 mmHg 63%
    22:00 +22°C° 0,7 mm 1 m/S 726 mmHg 67%
    23:00 +22°C° 0,7 mm 1 m/S 726 mmHg 70%

    27 Mai, Sonntag

    Zeit Temperatur Niederschläge Wind Luftdruck Luftfeuchtigkeit
    00:00 +21°C° 0,7 mm 1 m/S 727 mmHg 73%
    01:00 +21°C° 0 mm 1 m/S 727 mmHg 74%
    02:00 +20°C° 0 mm 1 m/S 727 mmHg 74%
    03:00 +20°C° 0 mm 1 m/S 727 mmHg 75%
    04:00 +20°C° 0 mm 1 m/S 727 mmHg 74%
    05:00 +21°C° 0 mm 1 m/S 727 mmHg 74%
    06:00 +21°C° 0 mm 1 m/S 728 mmHg 74%
    07:00 +21°C° 0,1 mm 2 m/S 728 mmHg 73%
    08:00 +21°C° 0,1 mm 3 m/S 728 mmHg 72%
    09:00 +22°C° 0,1 mm 3 m/S 729 mmHg 71%
    10:00 +22°C° 0,1 mm 4 m/S 729 mmHg 72%
    11:00 +21°C° 0,1 mm 4 m/S 729 mmHg 74%
    12:00 +21°C° 0,1 mm 4 m/S 729 mmHg 75%
    13:00 +20°C° 0 mm 4 m/S 729 mmHg 73%
    14:00 +20°C° 0 mm 4 m/S 729 mmHg 72%
    15:00 +20°C° 0 mm 3 m/S 729 mmHg 70%
    16:00 +20°C° 0 mm 3 m/S 729 mmHg 70%
    17:00 +20°C° 0 mm 2 m/S 730 mmHg 69%
    18:00 +20°C° 0 mm 2 m/S 730 mmHg 69%
    19:00 +19°C° 0 mm 2 m/S 730 mmHg 72%
    20:00 +18°C° 0 mm 2 m/S 731 mmHg 75%
    21:00 +18°C° 0 mm 2 m/S 731 mmHg 79%
    22:00 +17°C° 0 mm 2 m/S 731 mmHg 79%
    23:00 +17°C° 0 mm 2 m/S 732 mmHg 80%

    28 Mai, Montag

    Zeit Temperatur Niederschläge Wind Luftdruck Luftfeuchtigkeit
    00:00 +16°C° 0 mm 2 m/S 732 mmHg 80%
    01:00 +16°C° 0 mm 2 m/S 731 mmHg 81%
    02:00 +15°C° 0 mm 2 m/S 731 mmHg 82%
    03:00 +15°C° 0 mm 1 m/S 731 mmHg 83%
    04:00 +15°C° 0 mm 1 m/S 731 mmHg 81%
    05:00 +15°C° 0 mm 1 m/S 731 mmHg 79%
    06:00 +15°C° 0 mm 0 m/S 730 mmHg 77%
    07:00 +18°C° 0 mm 1 m/S 730 mmHg 71%
    08:00 +20°C° 0 mm 1 m/S 730 mmHg 65%
    09:00 +22°C° 0 mm 1 m/S 729 mmHg 59%
    10:00 +24°C° 0 mm 1 m/S 729 mmHg 55%
    11:00 +25°C° 0 mm 2 m/S 728 mmHg 51%
    12:00 +27°C° 0 mm 2 m/S 728 mmHg 48%
    13:00 +28°C° 0 mm 2 m/S 727 mmHg 46%
    14:00 +28°C° 0 mm 2 m/S 727 mmHg 45%
    15:00 +29°C° 0 mm 2 m/S 727 mmHg 44%
    16:00 +28°C° 0 mm 2 m/S 727 mmHg 48%
    17:00 +27°C° 0 mm 2 m/S 727 mmHg 52%
    18:00 +27°C° 0 mm 2 m/S 727 mmHg 56%
    19:00 +25°C° 0,1 mm 1 m/S 727 mmHg 59%
    20:00 +23°C° 0,1 mm 1 m/S 727 mmHg 63%
    21:00 +22°C° 0,1 mm 1 m/S 727 mmHg 67%
    22:00 +21°C° 0,1 mm 1 m/S 727 mmHg 69%
    23:00 +21°C° 0,1 mm 1 m/S 727 mmHg 70%
    Mehr zeigen